| time (UTC) | temp F | wind direction | speed MPH | gust MPH | rain 1hr in | rain 24hr in | rain mn in | humidity % | barometer mb |
| 20260503173003 | 56 | 339 | 4.0 | 11.0 | 0.00 | 0.00 | 0.00 | 37 | 1010.7 |
| 20260503172212 | 55 | 336 | 3.0 | 9.0 | 0.00 | 0.00 | 0.00 | 38 | 1010.7 |
| 20260503171214 | 54 | 330 | 4.0 | 10.0 | 0.00 | 0.00 | 0.00 | 38 | 1010.8 |
| 20260503170214 | 54 | 332 | 3.0 | 11.0 | 0.00 | 0.00 | 0.00 | 40 | 1010.9 |
| 20260503151003 | 51 | 338 | 3.0 | 10.0 | 0.00 | 0.00 | 0.00 | 40 | 1011.6 |
| 20260503131003 | 45 | 305 | 2.0 | 9.0 | 0.00 | 0.00 | 0.00 | 60 | 1012.2 |
| 20260503081003 | 42 | 305 | 1.0 | 3.0 | 0.00 | 0.02 | 0.00 | 69 | 1010.7 |
| 20260503072003 | 43 | 0 | 0.0 | 0.0 | 0.00 | 0.07 | 0.00 | 69 | 1010.4 |
| 20260503071003 | 43 | 0 | 0.0 | 0.0 | 0.00 | 0.07 | 0.00 | 69 | 1010.4 |
| 20260503055003 | 44 | 312 | 1.0 | 3.0 | 0.00 | 0.08 | 0.00 | 66 | 1010.8 |
| 20260503054214 | 44 | 295 | 1.0 | 6.0 | 0.00 | 0.08 | 0.00 | 66 | 1010.8 |
| 20260503053003 | 45 | 293 | 2.0 | 5.0 | 0.00 | 0.08 | 0.00 | 64 | 1010.9 |
| 20260503052003 | 45 | 281 | 2.0 | 7.0 | 0.00 | 0.08 | 0.00 | 64 | 1011.0 |
| 20260503051003 | 45 | 316 | 1.0 | 6.0 | 0.00 | 0.08 | 0.00 | 64 | 1011.0 |
| 20260503050003 | 45 | 294 | 1.0 | 6.0 | 0.00 | 0.08 | 0.00 | 63 | 1011.0 |
| 20260503045003 | 45 | 286 | 1.0 | 7.0 | 0.00 | 0.09 | 0.00 | 63 | 1011.1 |
| 20260503044213 | 45 | 299 | 0.0 | 7.0 | 0.00 | 0.09 | 0.00 | 63 | 1011.1 |
| 20260503043003 | 46 | 282 | 1.0 | 4.0 | 0.00 | 0.10 | 0.00 | 62 | 1011.1 |
| 20260503042003 | 46 | 291 | 0.0 | 4.0 | 0.00 | 0.10 | 0.00 | 64 | 1011.2 |
| 20260503041003 | 46 | 325 | 1.0 | 4.0 | 0.00 | 0.10 | 0.00 | 63 | 1011.3 |
| 20260503040004 | 46 | 294 | 2.0 | 7.0 | 0.00 | 0.10 | 0.00 | 61 | 1011.2 |
| 20260503035003 | 46 | 283 | 2.0 | 6.0 | 0.00 | 0.13 | 0.10 | 61 | 1011.2 |
| 20260503034213 | 46 | 301 | 2.0 | 6.0 | 0.00 | 0.14 | 0.10 | 60 | 1011.2 |
| 20260503033003 | 47 | 285 | 2.0 | 8.0 | 0.00 | 0.14 | 0.10 | 61 | 1011.2 |
| 20260503032003 | 47 | 264 | 1.0 | 6.0 | 0.00 | 0.14 | 0.10 | 62 | 1011.1 |
| 20260503031213 | 47 | 271 | 1.0 | 6.0 | 0.00 | 0.15 | 0.10 | 60 | 1011.1 |
| 20260503030003 | 47 | 276 | 1.0 | 4.0 | 0.00 | 0.15 | 0.10 | 61 | 1011.1 |
| 20260503025213 | 47 | 275 | 1.0 | 4.0 | 0.00 | 0.15 | 0.10 | 61 | 1011.1 |
| 20260503024212 | 47 | 295 | 2.0 | 5.0 | 0.00 | 0.16 | 0.10 | 60 | 1011.2 |
| 20260503023213 | 47 | 281 | 0.0 | 2.0 | 0.00 | 0.16 | 0.10 | 63 | 1011.2 |
| 20260503022003 | 47 | 0 | 0.0 | 0.0 | 0.00 | 0.18 | 0.10 | 62 | 1011.2 |
| 20260503021003 | 48 | 0 | 0.0 | 0.0 | 0.00 | 0.18 | 0.10 | 68 | 1011.2 |
| 20260503020003 | 48 | 0 | 0.0 | 0.0 | 0.00 | 0.18 | 0.10 | 67 | 1011.1 |
| 20260503015003 | 48 | 0 | 0.0 | 0.0 | 0.00 | 0.18 | 0.10 | 59 | 1011.0 |
| 20260503014003 | 48 | 74 | 0.0 | 2.0 | 0.00 | 0.19 | 0.10 | 59 | 1011.0 |
| 20260503013003 | 48 | 0 | 0.0 | 0.0 | 0.00 | 0.19 | 0.10 | 61 | 1010.9 |
| 20260503012214 | 48 | 54 | 0.0 | 2.0 | 0.00 | 0.19 | 0.10 | 60 | 1010.9 |
| 20260503011004 | 49 | 293 | 1.0 | 3.0 | 0.00 | 0.20 | 0.10 | 58 | 1010.8 |
| 20260503010003 | 49 | 262 | 0.0 | 2.0 | 0.00 | 0.21 | 0.10 | 61 | 1010.7 |
| 20260503005214 | 49 | 246 | 0.0 | 5.0 | 0.00 | 0.21 | 0.10 | 56 | 1010.5 |
| 20260503004003 | 50 | 339 | 1.0 | 6.0 | 0.00 | 0.21 | 0.10 | 55 | 1010.4 |
| 20260503003003 | 50 | 284 | 1.0 | 4.0 | 0.00 | 0.21 | 0.10 | 57 | 1010.4 |
| 20260503002003 | 50 | 0 | 0.0 | 0.0 | 0.00 | 0.21 | 0.10 | 59 | 1010.3 |
| 20260503001003 | 50 | 0 | 0.0 | 0.0 | 0.00 | 0.21 | 0.10 | 54 | 1010.1 |
| 20260503000003 | 50 | 218 | 0.0 | 2.0 | 0.00 | 0.21 | 0.10 | 53 | 1010.1 |
| 20260502235003 | 51 | 216 | 0.0 | 3.0 | 0.00 | 0.22 | 0.10 | 53 | 1010.1 |
| 20260502234003 | 51 | 0 | 0.0 | 0.0 | 0.00 | 0.22 | 0.10 | 52 | 1010.0 |
| 20260502233213 | 51 | 0 | 0.0 | 0.0 | 0.00 | 0.22 | 0.10 | 57 | 1010.0 |
| 20260502232214 | 52 | 0 | 0.0 | 0.0 | 0.00 | 0.23 | 0.10 | 54 | 1009.9 |
| 20260502231003 | 52 | 0 | 0.0 | 0.0 | 0.00 | 0.23 | 0.10 | 51 | 1009.9 |
| 20260502230003 | 52 | 22 | 2.0 | 5.0 | 0.00 | 0.23 | 0.10 | 49 | 1009.9 |
| 20260502225003 | 52 | 345 | 1.0 | 9.0 | 0.00 | 0.23 | 0.10 | 48 | 1009.9 |
| 20260502224213 | 53 | 320 | 1.0 | 4.0 | 0.00 | 0.23 | 0.10 | 50 | 1009.7 |
| 20260502223003 | 53 | 295 | 1.0 | 4.0 | 0.00 | 0.23 | 0.10 | 48 | 1009.6 |
| 20260502222213 | 53 | 309 | 1.0 | 5.0 | 0.00 | 0.23 | 0.10 | 47 | 1009.6 |
| 20260502221003 | 53 | 240 | 1.0 | 4.0 | 0.00 | 0.23 | 0.10 | 46 | 1009.5 |
| 20260502220003 | 53 | 308 | 1.0 | 3.0 | 0.00 | 0.23 | 0.10 | 47 | 1009.5 |
| 20260502215003 | 53 | 250 | 0.0 | 1.0 | 0.00 | 0.23 | 0.10 | 47 | 1009.4 |
| 20260502214003 | 53 | 263 | 1.0 | 4.0 | 0.00 | 0.23 | 0.10 | 47 | 1009.5 |
| 20260502213003 | 53 | 298 | 0.0 | 4.0 | 0.00 | 0.23 | 0.10 | 46 | 1009.3 |
| 20260502212004 | 53 | 267 | 0.0 | 3.0 | 0.00 | 0.23 | 0.10 | 47 | 1009.3 |
| 20260502211003 | 53 | 281 | 1.0 | 4.0 | 0.00 | 0.23 | 0.10 | 47 | 1009.3 |
| 20260502210003 | 54 | 275 | 1.0 | 4.0 | 0.00 | 0.23 | 0.10 | 46 | 1009.2 |
| 20260502205003 | 54 | 303 | 1.0 | 3.0 | 0.00 | 0.23 | 0.10 | 44 | 1009.1 |
| 20260502204003 | 54 | 309 | 0.0 | 3.0 | 0.00 | 0.23 | 0.10 | 46 | 1009.2 |
| 20260502203003 | 54 | 312 | 1.0 | 7.0 | 0.00 | 0.23 | 0.10 | 44 | 1009.3 |
| 20260502202003 | 54 | 272 | 2.0 | 6.0 | 0.00 | 0.23 | 0.10 | 45 | 1009.3 |
| 20260502201003 | 54 | 290 | 1.0 | 6.0 | 0.00 | 0.23 | 0.10 | 48 | 1009.3 |
| 20260502200003 | 54 | 229 | 2.0 | 7.0 | 0.00 | 0.23 | 0.10 | 44 | 1009.5 |
| 20260502195003 | 54 | 251 | 1.0 | 5.0 | 0.00 | 0.23 | 0.10 | 44 | 1009.6 |
| 20260502194003 | 54 | 295 | 1.0 | 10.0 | 0.00 | 0.23 | 0.10 | 47 | 1009.9 |
| 20260502193003 | 55 | 290 | 0.0 | 4.0 | 0.00 | 0.23 | 0.10 | 43 | 1010.0 |
| 20260502192003 | 56 | 299 | 0.0 | 3.0 | 0.00 | 0.23 | 0.10 | 45 | 1010.2 |
| 20260502191003 | 56 | 329 | 1.0 | 5.0 | 0.00 | 0.23 | 0.10 | 43 | 1010.3 |
| 20260502190004 | 55 | 1 | 2.0 | 6.0 | 0.00 | 0.23 | 0.10 | 42 | 1010.4 |
| 20260502185003 | 56 | 30 | 1.0 | 4.0 | 0.00 | 0.23 | 0.10 | 42 | 1010.4 |
| 20260502184214 | 55 | 296 | 1.0 | 4.0 | 0.00 | 0.23 | 0.10 | 43 | 1010.5 |
| 20260502183003 | 56 | 357 | 1.0 | 4.0 | 0.00 | 0.23 | 0.10 | 43 | 1010.6 |
| 20260502182003 | 56 | 41 | 2.0 | 6.0 | 0.00 | 0.23 | 0.10 | 42 | 1010.5 |
| 20260502181003 | 55 | 50 | 1.0 | 3.0 | 0.00 | 0.23 | 0.10 | 44 | 1010.5 |